Concordia, KS

3:51 PM CST on December 07, 2019 (GMT -0600)
Blosser Municipal

Weather History for KCNK - October, 2019

Change the Weather History Date:

Sunday, October 27, 2019

  Actual Average Record
Temperature  
Mean Temperature 43 °F 51 °F  
Max Temperature 48 °F 63 °F 89 °F (1922)
Min Temperature 37 °F 40 °F 20 °F (1913)
Degree Days  
Heating Degree Days 22 14  
Month to date heating degree days 281 259  
Since 1 July heating degree days 284 332  
Cooling Degree Days 0 0  
Month to date cooling degree days 9 20  
Year to date cooling degree days 1657 1346  
Moisture  
Dew Point 31 °F    
Average Humidity 66    
Maximum Humidity 79    
Minimum Humidity 52    
Precipitation  
Precipitation 0.00 in 0.05 in 1.26 in (1980)
Month to date precipitation 1.20 1.73  
Year to date precipitation 32.22 25.74  
Snow  
Snow 0.00 in 0.00 in 0.40 in (1976)
Month to date snowfall 0.0 0.1  
Year to date snowfall 32.3 13.8  
Since 1 July snowfall 0.0 0.1  
Snow Depth 0.00 in    
Sea Level Pressure  
Sea Level Pressure 30.03 in    
Wind  
Wind Speed 14 mph (North)    
Max Wind Speed 22 mph    
Max Gust Speed 32 mph    
Visibility 10 miles    
Events      
T = Trace of Precipitation, MM = Missing Value Source: NWS Daily Summary

Daily Weather History Graph

Daily Weather History Graph

Search for Another Location

Airport or City:

Astronomy

Oct. 27, 2019 Rise Set
Actual Time 7:53 AM CDT 6:35 PM CDT
Civil Twilight 7:25 AM CDT 7:02 PM CDT
Nautical Twilight 6:53 AM CDT 7:34 PM CDT
Astronomical Twilight 6:22 AM CDT 8:05 PM CDT
Moon 7:03 AM CDT (10/27) 6:45 PM CDT (10/27)
Length of Visible Light 11h 37m
Length of Day
10h 42m
Waning Crescent, 0% of the Moon is Illuminated
Oct 27
Waning Crescent
Oct 27
New
Nov 4
First Quarter
Nov 12
Full
Nov 19
Last Quarter

Hourly Weather History & Observations

Time (CDT) Temp. Windchill Dew Point Humidity Pressure Visibility Wind Dir Wind Speed Gust Speed Precip Events Conditions
1:55 AM 46.0 °F 42.5 °F 37.0 °F 71% 29.81 in 10.0 mi North 6.9 mph - N/A   Clear
2:55 AM 46.0 °F 41.0 °F 37.0 °F 71% 29.83 in 10.0 mi North 10.4 mph - N/A   Clear
3:55 AM 44.1 °F 38.1 °F 36.0 °F 73% 29.86 in 10.0 mi North 11.5 mph - N/A   Clear
4:55 AM 42.1 °F 35.2 °F 34.0 °F 73% 29.89 in 10.0 mi North 12.7 mph - N/A   Clear
5:55 AM 41.0 °F 33.9 °F 33.1 °F 73% 29.92 in 10.0 mi North 12.7 mph - N/A   Clear
6:55 AM 39.9 °F 33.4 °F 32.0 °F 73% 29.96 in 10.0 mi North 10.4 mph - N/A   Clear
7:55 AM 39.9 °F 32.5 °F 33.1 °F 77% 30.01 in 10.0 mi North 12.7 mph - N/A   Mostly Cloudy
8:55 AM 42.1 °F 33.9 °F 33.1 °F 70% 30.01 in 10.0 mi North 17.3 mph 25.3 mph N/A   Overcast
9:55 AM 43.0 °F 35.1 °F 32.0 °F 65% 30.04 in 10.0 mi North 17.3 mph 27.6 mph N/A   Overcast
10:55 AM 44.1 °F 36.8 °F 32.0 °F 63% 30.05 in 10.0 mi North 16.1 mph 26.5 mph N/A   Overcast
11:55 AM 45.0 °F 37.6 °F 32.0 °F 60% 30.07 in 10.0 mi North 17.3 mph 25.3 mph N/A   Overcast
12:55 PM 46.0 °F 39.6 °F 32.0 °F 58% 30.07 in 10.0 mi North 15.0 mph - N/A   Overcast
1:55 PM 44.1 °F 37.4 °F 30.9 °F 60% 30.07 in 10.0 mi North 13.8 mph - N/A   Overcast
3:55 PM 43.0 °F 34.8 °F 30.9 °F 62% 30.08 in 10.0 mi NNW 18.4 mph 24.2 mph N/A   Overcast
4:55 PM 42.1 °F 33.6 °F 30.0 °F 62% 30.11 in 10.0 mi North 18.4 mph 25.3 mph N/A   Overcast
5:55 PM 41.0 °F 34.3 °F 28.9 °F 62% 30.12 in 10.0 mi North 11.5 mph - N/A   Overcast
6:38 PM 41.0 °F 33.9 °F 28.9 °F 62% 30.10 in 10.0 mi North 12.7 mph - N/A   Overcast
6:55 PM 41.0 °F 35.8 °F 28.9 °F 62% 30.12 in 10.0 mi North 8.1 mph - N/A   Overcast
7:55 PM 41.0 °F 36.4 °F 28.9 °F 62% 30.14 in 10.0 mi North 6.9 mph - N/A   Overcast
8:55 PM 39.9 °F 32.5 °F 28.0 °F 63% 30.16 in 10.0 mi North 12.7 mph 25.3 mph N/A   Overcast
9:55 PM 39.0 °F 30.6 °F 27.0 °F 62% 30.18 in 10.0 mi North 15.0 mph - N/A   Overcast
10:14 PM 39.0 °F 29.3 °F 25.0 °F 57% 30.16 in 10.0 mi North 19.6 mph 24.2 mph N/A   Overcast
10:55 PM 39.0 °F 31.0 °F 24.1 °F 55% 30.19 in 10.0 mi North 13.8 mph 24.2 mph N/A   Overcast